星链-1542 (STARLINK-1542 )

导读

STARLINK-1542是美国太空探索技术公司(SpaceX)星链(Starlink)星座的卫星,于北京时间2020年8月7日发射入轨,属于星链互联网星座组网卫星,依托星链低轨星座架构,可提供全球覆盖的卫星互联网服务,承载SpaceX打造天基通信网络的商业与战略布局。

基本信息
目录编号:
46073
目录名称:
STARLINK-1542
国际标识:
2020-055AY
轨道中心:
EARTH
卫星名称:
星链-1542
卫星全名:
星链-1542 (STARLINK-1542 )
卫星状态:
在轨 (已飞行2136 天)
发射日期:
2020-08-07 UTC
国别 :
美国 (US)
星等 :
--
轨道信息
数据来源 国际轨道数据
星历时间: 2026-06-13T04:50:41+0800
4小时前
查看轨道信息
半长轴: 6848.828km
偏心率: 0.000087
轨道倾角: 53.160°
近地点辐角 84.212°
升交点赤经 21.973°
平近点角 275.899°
近地点: 470.095km
远地点: 471.287km
周期: 94.012分钟
每日圈数: 15.317166
详细信息
固有亮度:
5
最大亮度:
2.5
卫星平台:
Starlink V1.0
覆盖范围:
全球
运营商:
太空探索技术公司
运营商所在国:
美国
制造商(研发单位):
太空探索技术公司
制造商所在国:
美国
使用方式:
暂无
卫星简介
星链(Starlink)计划是由太空探索技术公司(SpaceX)提出的一个巨型低轨卫星互联网星座项目,计划在2019年至2024年间在太空搭建由约1.2万颗卫星组成的“星链”网络,其中1584颗将部署在地球上空550千米处的近地轨道,并从2020年开始工作。该卫星仍在工作。
2D轨道图
3D轨道图
轨道高度分析图
轨道倾角分析图
轨道综合分析图
查看轨道综合分析图